This is the latest recevied weather packets stored in our database for station/object KD7CIH. If no packets are shown the sender has not sent any weather packets the latest 10 day(s).
| Time | Temp. | Humidity | Pressure | Rain* | Wind** | Luminosity | Snow |
|---|---|---|---|---|---|---|---|
| 1787986268 | 16.67° C | 66% | 1017.2 hPa | 0 mm | - | - | - |
| 1787985965 | 16.67° C | 67% | 1017.2 hPa | 0 mm | - | - | - |
| 1787985794 | 16.67° C | 67% | 1017.1 hPa | 0 mm | - | - | - |
| 1787985367 | 16.67° C | 66% | 1016.9 hPa | 0 mm | - | - | - |
| 1787985065 | 16.67° C | 65% | 1016.9 hPa | 0 mm | - | - | - |
| 1787984766 | 17.22° C | 63% | 1016.9 hPa | 0 mm | - | - | - |
| 1787984594 | 17.78° C | 62% | 1016.9 hPa | 0 mm | - | - | - |
| 1787984165 | 17.78° C | 60% | 1017 hPa | 0 mm | - | - | - |
| 1787983865 | 18.33° C | 58% | 1016.9 hPa | 0 mm | - | - | - |
| 1787983566 | 18.33° C | 55% | 1016.8 hPa | 0 mm | - | - | - |
| 1787983392 | 18.33° C | 56% | 1016.5 hPa | 0 mm | - | - | - |
| 1787982965 | 18.33° C | 56% | 1016.5 hPa | 0 mm | - | - | - |
| 1787982665 | 18.33° C | 55% | 1016.4 hPa | 0 mm | - | - | - |
| 1787982492 | 18.89° C | 53% | 1016.5 hPa | 0 mm | - | - | - |
| 1787982065 | 19.44° C | 52% | 1016.5 hPa | 0 mm | - | - | - |
| 1787981767 | 18.89° C | 53% | 1016.6 hPa | 0 mm | - | - | - |
| 1787981468 | 18.89° C | 55% | 1016.8 hPa | 0 mm | - | - | - |
| 1787981167 | 18.33° C | 54% | 1016.6 hPa | 0 mm | - | - | - |
| 1787980867 | 18.33° C | 56% | 1016.3 hPa | 0 mm | - | - | - |
| 1787980566 | 18.33° C | 58% | 1016.6 hPa | 0 mm | - | - | - |
| 1787980393 | 18.89° C | 58% | 1016.9 hPa | 0 mm | - | - | - |
| 1787979967 | 18.89° C | 54% | 1016.9 hPa | 0 mm | - | - | - |
| 1787979666 | 18.89° C | 53% | 1016.8 hPa | 0 mm | - | - | - |
| 1787979370 | 18.89° C | 53% | 1016.9 hPa | 0 mm | - | - | - |
| 1787979067 | 18.89° C | 53% | 1016.8 hPa | 0 mm | - | - | - |
* Rain latest hour (hover to see other rain measurements)
** Current wind speed in m/s (hover to see current wind gust speed)